Location: Ahovo
(45.1740°N, 15.9889°E)
Time: 11:54:04
(UTC+00:00)

Daily predictions for brighter satellites

Satellite Brightness Start Highest point End
(mag) Time Altitude Azimuth Time Altitude Azimuth Time Altitude Azimuth
Cosmos 2098 Rocket 4.4 18:09:03 10° N 18:16:17 69° E 18:23:37 10° SSE
NOSS 0 Rocket 4.5 18:11:25 10° NNW 18:17:22 45° NE 18:23:18 10° SE
Cosmos 2251 Rocket 3.8 18:14:57 10° S 18:20:04 47° ESE 18:25:11 10° NNE
SL-4 R/B 3.7 18:17:20 10° S 18:20:10 17° SE 18:23:08 10° E
Cosmos 389 Rocket 4.0 18:19:11 10° SE 18:21:39 18° E 18:24:09 10° NE
Ariane Rocket 3.6 18:17:15 10° SE 18:21:53 38° ENE 18:26:33 10° N
SAR-Lupe-1 4.3 18:21:37 10° N 18:25:12 76° WNW 18:28:46 10° SSW
CZ-4C R/B 4.2 18:20:51 10° W 18:25:26 31° NNW 18:30:53 10° NNE
ATLAS 5 CENTAUR R/B 4.5 18:23:30 10° WNW 18:26:10 16° NNW 18:29:05 10° NNE
COSMOS 2428 2.8 18:21:09 10° NNW 18:26:56 79° ENE 18:32:40 10° SSE
Cosmos 2219 Rocket 2.3 18:21:36 10° NNW 18:27:20 88° WSW 18:33:00 10° SSE
Cosmos 614 Rocket 4.4 18:23:12 10° S 18:27:57 39° ESE 18:32:41 10° NE
Cosmos 1455 2.1 18:24:30 10° S 18:28:11 64° E 18:31:54 10° NNE
ATLAS 3B R/B 2.9 18:22:03 10° NW 18:29:07 78° NE 18:36:27 10° SE
Meteor 2-10 Rocket 3.8 18:24:35 10° SSW 18:29:51 82° W 18:35:24 10° N
BREEZE-M DEB (TANK) 3.5 18:29:55 10° WSW 18:33:21 75° NNW 18:44:37 10° ENE
COSMOS 2487 3.8 18:30:47 10° SW 18:34:03 43° WNW 18:37:20 10° N
Cosmos 1092 Rocket 4.0 18:30:33 10° N 18:36:50 87° E 18:43:01 10° S
FALCON 9 DEB 4.3 18:35:01 10° S 18:37:15 19° SE 18:39:30 10° E
FALCON 9 DEB 3.6 18:34:10 10° WSW 18:37:33 62° NNW 18:40:58 10° NE
RESURS DK-1 2.5 18:34:25 10° SSW 18:38:33 81° WNW 18:42:42 10° NNE
USA 215 4.2 18:33:03 10° E 18:39:00 39° NNE 18:44:58 10° NW
BREEZE-M DEB (TANK) 2.9 18:36:35 10° WNW 18:39:04 34° N 18:41:13 10° ENE
Helios 1A Rocket 4.0 18:38:02 10° S 18:41:58 47° W 18:45:58 10° NNW
Cosmos 1992 Rocket 4.3 18:37:24 10° NNW 18:42:36 72° WSW 18:47:47 10° SSE
Resurs 01 Rocket 2.5 18:45:15 13° SE 18:48:44 33° ENE 18:52:43 10° N
FALCON 9 DEB 3.8 18:47:02 10° SSW 18:49:38 26° SE 18:51:43 13° E
Resurs 1-3 3.7 18:48:33 10° SSE 18:52:52 59° ENE 18:57:11 10° N
BREEZE-M DEB (TANK) 4.3 18:49:16 10° W 18:53:22 64° NNW 19:08:43 10° ENE
Cosmos 405 Rocket 2.8 18:51:34 10° N 18:55:33 63° ENE 18:59:06 12° SSE
Cosmos 2237 Rocket 2.4 18:53:12 10° NNW 18:58:44 54° ENE 19:03:02 17° SE
Cosmos 1408 4.2 18:55:38 10° NNW 18:58:54 35° W 19:02:09 10° SSW
Cosmos 2058 3.2 18:57:40 10° NNW 19:01:51 70° W 19:05:58 10° S
Cosmos 407 Rocket 3.8 18:58:20 10° S 19:03:09 43° ESE 19:08:03 10° NNE
Cosmos 2279 Rocket 3.9 19:02:23 10° S 19:08:31 72° E 19:14:42 10° NNE
OBJECT-B 2.0 19:06:17 10° S 19:09:21 41° W 19:12:28 10° NNW
FALCON 9 DEB 3.5 19:07:14 10° SSW 19:10:02 33° SE 19:10:44 29° ESE
Exosat Rocket 4.0 19:03:52 10° NNW 19:10:04 67° WSW 19:15:03 10° S
Cosmos 1356 3.3 19:06:42 10° N 19:10:08 88° W 19:12:45 16° S
BREEZE-M DEB (TANK) 4.2 19:09:02 10° WSW 19:10:46 15° SSW 19:12:59 10° S
IRIDIUM 114 4.3 19:07:20 10° S 19:12:28 63° E 19:17:38 10° N
Cosmos 2227 Rocket 2.6 19:08:04 10° S 19:13:18 40° ESE 19:18:33 10° NE
Cosmos 1825 3.3 19:09:55 10° NNW 19:13:31 42° W 19:17:05 10° SSW
Cosmos 2084 Rocket 3.8 19:11:04 10° S 19:14:40 35° ESE 19:18:22 10° NE
Lacrosse 5 rocket 4.0 19:12:03 10° NW 19:14:47 17° N 19:17:37 10° NE
Landsat 7 4.2 19:12:08 21° SE 19:15:01 46° ENE 19:19:34 10° N
BREEZE-M DEB (TANK) 3.7 19:10:36 10° W 19:15:13 84° N 19:20:51 11° E
Cosmos 2026 Rocket 4.5 19:10:13 10° NNW 19:16:11 60° W 19:22:13 10° S
Cosmos 909 Rocket 4.3 19:12:33 10° SW 19:18:53 74° NW 19:25:22 10° NNE
Cosmos 1818 4.4 19:14:00 10° SW 19:19:19 55° NW 19:24:43 10° NNE
Cosmos 1140 Rocket 3.5 19:14:23 10° S 19:19:19 53° ESE 19:24:19 10° NNE
Cosmos 2297 Rocket 2.2 19:14:32 10° S 19:20:04 59° ESE 19:25:38 10° NNE
IRIDIUM 103 4.2 19:16:24 10° S 19:21:35 76° E 19:26:49 10° N
SJ-6B 4.4 19:20:07 10° SSW 19:23:28 31° W 19:26:52 10° NNW
Cosmos-2242 3.3 19:24:16 26° SSE 19:26:18 44° E 19:30:25 10° NNE
Cosmos 2219 3.1 19:22:04 10° S 19:27:35 61° ESE 19:33:07 10° NNE
Cosmos 2333 Rocket 4.2 19:25:02 10° NW 19:29:36 25° WSW 19:34:07 10° SSW
Spot 2 Rocket 4.2 19:29:23 26° ESE 19:31:28 38° ENE 19:36:08 10° N
Genesis I 3.4 19:29:12 10° NNW 19:33:11 59° NE 19:34:32 37° ESE
Cosmos 2151 2.9 19:28:55 10° N 19:33:14 71° E 19:35:15 30° SSE
Cosmos 2266 Rocket 4.1 19:28:08 10° N 19:34:27 62° ENE 19:38:12 25° SSE
Cosmos 1633 2.4 19:33:04 10° N 19:36:41 86° E 19:37:56 39° SSE
Cosmos 44 Rocket 4.2 19:37:36 30° ESE 19:37:36 30° ESE 19:41:55 10° NE
Abrixas rocket 4.0 19:36:05 10° WNW 19:36:37 15° WNW 19:36:37 15° WNW
IRIDIUM 106 4.5 19:34:41 10° S 19:39:53 76° W 19:45:08 10° N
ARIANE 5 R/B 3.2 19:41:00 34° ESE 19:42:05 40° ENE 19:46:12 10° N
Meteor 1-4 Rocket 3.9 19:44:56 24° ENE 19:44:56 24° ENE 19:46:55 10° NNE
COSMOS 2455 3.2 19:40:27 18° S 19:44:23 41° ESE 19:50:00 10° NE
USA 245 3.2 19:46:18 50° E 19:46:37 52° ENE 19:49:43 10° N
IGS 5A 3.6 19:47:41 31° S 19:49:35 70° WSW 19:53:45 10° NNW
CZ-2C R/B 3.5 19:47:04 10° NNE 19:51:31 80° ESE 19:53:53 27° S
Cosmos 2221 4.3 19:52:59 17° ENE 19:52:59 17° ENE 19:54:49 10° NE
Cosmos 1980 4.2 19:49:10 10° NW 19:54:42 54° WSW 19:58:01 24° S
SL-16 R/B 2.5 19:49:25 10° NNW 19:55:02 55° ENE 19:56:59 37° ESE
Timation 2 Rocket 4.0 19:50:39 10° SSW 19:57:16 87° ESE 20:03:37 10° NNE
SL-4 R/B 2.1 19:54:49 10° SW 19:59:13 81° SSE 20:03:01 16° ENE
Timation 1 Rocket 4.4 19:56:23 25° S 19:59:42 54° ESE 20:05:30 10° NE
Cosmos 1190 Rocket 4.0 19:54:30 10° SSW 19:59:45 81° WNW 20:05:00 10° NNE
Cosmos 1763 Rocket 4.1 19:58:14 10° N 20:02:58 37° ENE 20:03:54 34° E
BREEZE-M (TANK) 4.1 19:47:18 10° WNW 20:03:46 54° SW 20:05:46 35° S
FALCON 9 DEB 4.5 20:03:48 10° WSW 20:05:24 28° WSW 20:05:24 28° WSW
SPOT 1/Viking Rocket 3.5 20:04:57 38° S 20:07:00 84° WSW 20:12:16 10° NNW
FALCON 9 DEB 4.3 20:09:45 10° WSW 20:11:42 34° W 20:11:42 34° W
CARTOSAT-1 3.4 20:16:55 73° SE 20:17:15 81° ENE 20:21:36 10° N
Cosmos 676 Rocket 3.9 20:15:18 30° SSW 20:17:55 89° E 20:23:07 10° NNE
Cosmos 1766 Rocket 3.3 20:14:07 10° N 20:18:28 89° ENE 20:18:49 76° SSE
ATLAS 3B R/B 4.4 20:13:40 10° WNW 20:19:13 25° WSW 20:24:24 12° SSW
Terra 2.2 20:20:42 46° ENE 20:20:55 46° ENE 20:25:29 10° N
USA 215 3.2 20:18:58 41° ESE 20:21:33 83° NE 20:28:07 10° NW
Meteor 2-3 Rocket 4.3 20:17:05 10° NNW 20:22:42 55° W 20:25:24 29° SSW
Cosmos 1553 Rocket 4.5 20:23:51 38° E 20:24:05 38° E 20:29:40 10° NNE
Okean 3 Rocket 3.5 20:19:39 10° N 20:24:13 81° W 20:24:41 69° SSW
Resurs 01 Rocket 3.4 20:22:48 17° SW 20:25:14 26° W 20:29:01 10° NW
JB-3 4.4 20:21:39 10° NNE 20:25:20 69° NE 20:25:20 69° NE
SPOT 5 2.6 20:25:52 70° ESE 20:26:08 72° ENE 20:30:54 10° N
Meteor 1-27 4.4 20:22:43 25° SSW 20:26:09 72° WNW 20:32:00 10° N
ERS-1 Rocket 2.8 20:34:05 71° SSE 20:34:38 89° E 20:39:42 10° NNW
Aureole 1 Rocket 4.3 20:40:23 37° ENE 20:40:23 37° ENE 20:43:38 10° NE
H-2A R/B 4.3 20:34:52 10° NNE 20:37:50 42° NE 20:37:50 42° NE
Cosmos 2237 Rocket 3.9 20:37:59 10° NW 20:42:23 24° WSW 20:44:52 18° SW
Cosmos 2263 Rocket 3.2 20:51:48 32° ENE 20:51:48 32° ENE 20:55:13 10° NE
Lacrosse 5 rocket 3.2 20:51:33 10° NW 20:55:10 25° NNE 20:56:01 24° NE
Cosmos 2082 4.1 20:53:32 27° SW 20:56:34 61° WNW 21:02:09 10° NNE
Cosmos 2227 Rocket 3.7 20:52:16 10° WSW 20:57:24 35° NW 21:02:35 10° NNE
SeaSat 1 4.4 20:53:17 10° NE 20:54:45 18° ENE 20:54:45 18° ENE
Cosmos 1741 Rocket 4.1 21:01:00 68° NE 21:01:00 68° NE 21:05:42 10° NNE
Cosmos 921 Rocket 4.2 20:57:19 10° N 21:00:29 36° NNE 21:00:29 36° NNE
Cosmos 1842 Rocket 4.1 21:03:29 57° NNW 21:03:29 57° NNW 21:07:09 10° N
Cosmos 1850 Rocket 4.0 21:04:35 73° NNE 21:04:35 73° NNE 21:09:20 10° NNE
Cosmos 2297 Rocket 4.3 20:59:51 10° WSW 21:04:30 26° NW 21:09:12 10° N
Cosmos 1603 4.0 21:03:57 10° NNW 21:09:36 57° ENE 21:09:37 57° ENE
Cosmos 44 Rocket 4.4 21:16:07 24° WSW 21:18:48 45° NW 21:23:50 10° NNE
SL-08 ROCKET BODY 4.3 21:13:26 10° N 21:19:29 77° W 21:19:44 76° WSW
USA 229 DEB 3.9 21:14:22 10° NW 21:21:43 76° NE 21:23:02 62° ESE
USA 229 3.9 21:14:27 10° NW 21:21:48 76° NE 21:23:08 62° ESE
Cosmos 1745 Rocket 3.8 21:21:37 10° N 21:27:58 87° E 21:28:01 87° ESE
Cosmos 2221 3.9 21:29:48 35° NW 21:29:48 35° NW 21:33:03 10° N
COSMOS 2455 4.0 21:24:43 10° WSW 21:30:21 40° NW 21:36:00 10° NNE
Cosmos 1709 Rocket 4.2 21:27:11 10° N 21:32:58 56° ENE 21:32:58 56° ENE
Cosmos 841 Rocket 3.9 21:30:48 10° NNW 21:35:03 57° NW 21:35:03 57° NW
SL-16 R/B 3.8 21:34:16 10° NW 21:38:44 24° WSW 21:38:53 24° WSW
SL-4 R/B 3.5 21:34:53 10° W 21:38:43 40° NNW 21:38:43 40° NNW
NOSS 3-1 (A) 4.0 21:32:08 10° NW 21:39:42 87° NE 21:41:02 67° SE
S3M 3.9 21:40:09 82° W 21:40:15 82° W 21:46:42 10° N
Cosmos 2227 4.5 21:54:22 66° NNW 21:54:22 66° NNW 21:59:34 10° NNE
Terra 3.8 21:59:35 20° W 21:59:35 20° W 22:02:30 10° NW
NOSS 3-1 (C) 4.4 21:56:34 10° NW 22:03:56 51° WSW 22:04:15 51° SW
USA 215 4.4 22:06:18 29° WSW 22:06:18 29° WSW 22:10:41 10° WNW
Cosmos 1943 3.9 22:00:29 10° NNW 22:04:47 48° WNW 22:04:47 48° WNW
ALOS 2 4.3 22:14:51 31° N 22:14:51 31° N 22:17:13 10° N
Cosmos 2263 Rocket 3.4 22:33:26 32° WNW 22:34:01 33° NW 22:39:03 10° N
Lacrosse 5 rocket 3.9 22:30:23 10° NW 22:31:37 19° NW 22:31:37 19° NW
SeaSat 1 3.6 22:30:34 10° NNE 22:34:31 39° NNW 22:34:31 39° NNW
Cosmos 1844 Rocket 3.5 22:48:08 44° NE 22:48:08 44° NE 22:51:54 10° NNE
USA 281 3.7 22:47:12 50° ENE 22:47:49 52° ENE 22:54:09 10° NNW
Cosmos 2184 Rocket 4.2 22:42:36 10° N 22:48:10 68° NNE 22:48:10 68° NNE
SJ 16-02 4.2 23:02:50 10° ENE 23:02:50 10° ENE 23:02:59 10° ENE
Thor Agena Rocket 4.5 23:00:30 10° N 23:04:04 45° N 23:04:04 45° N
Cosmos 1833 Rocket 4.2 23:06:52 10° N 23:11:49 30° NE 23:12:53 28° ENE
CZ-2D R/B 4.3 23:10:42 10° NE 23:13:28 15° E 23:13:28 15° E
Cosmos 2074 Rocket 4.4 23:10:20 10° NNW 23:15:33 56° NW 23:15:33 56° NW
Cosmos 2278 Rocket 3.6 23:33:50 30° E 23:33:50 30° E 23:37:36 10° NE
Nadezhda 1 Rocket 4.2 23:40:22 63° NW 23:40:22 63° NW 23:46:12 10° N
ATLAS 5 CENTAUR R/B 2.9 23:40:16 10° NNW 23:45:40 53° NE 23:46:48 47° E
Cosmos 2218 Rocket 4.4 23:42:39 10° N 23:48:43 54° ENE 23:49:00 53° E
